EW1541 Weather Reports


Display with metric or nautical units.
time (UTC)temp
F
wind
direction
speed
MPH
gust
MPH
rain 1hr
in
rain 24hr
in
rain mn
in
humidity
%
barometer
mb
20260505101530 0 333 3.0 6.0 0.07 0.31 0.23 1009.8
20260505100021 0 333 4.0 10.0 0.07 0.28 0.21 1009.8
20260505094510 0 340 6.0 9.0 0.07 0.28 0.20 1009.6
20260505093020 0 336 7.0 12.0 0.07 0.27 0.18 1009.5
20260505091501 0 308 8.0 19.0 0.06 0.24 0.16 1009.5
20260505090057 0 183 2.0 6.0 0.06 0.23 0.14 1009.6
20260505084554 0 182 4.0 12.0 0.06 0.21 0.13 1009.6
20260505083049 0 178 8.0 14.0 0.05 0.20 0.11 1009.2
20260505081555 0 182 9.0 12.0 0.04 0.18 0.09 1009.1
20260505080039 0 171 11.0 15.0 0.04 0.17 0.09 1009.1
20260505074537 0 244 3.0 8.0 0.03 0.18 0.07 1009.3
20260505073034 0 173 5.0 8.0 0.03 0.17 0.06 1009.2
20260505071526 0 173 5.0 8.0 0.03 0.17 0.06 1009.1
20260505070022 0 173 6.0 9.0 0.02 0.16 0.05 1009.0
20260505064517 0 173 3.0 5.0 0.02 0.16 0.04 1009.1
20260505063016 0 173 0.0 4.0 0.01 0.15 0.03 1009.2
20260505061511 0 173 0.0 5.0 0.00 0.14 0.02 1009.2
20260505060007 0 173 0.0 7.0 0.00 0.14 0.02 1009.2
20260505054501 0 173 4.0 10.0 0.00 0.16 0.02 1009.3
20260505053059 0 189 7.0 10.0 0.00 0.16 0.02 1009.2
20260505051611 0 196 0.0 4.0 0.01 0.16 0.02 1009.3
20260505041548 0 220 4.0 7.0 0.00 0.15 0.02 1008.9
20260505040036 0 311 0.0 3.0 0.00 0.15 0.02 1009.0
20260505034532 0 311 1.0 5.0 0.00 0.18 0.02 1009.0
20260505033030 0 313 0.0 4.0 0.00 0.18 0.02 1009.1
20260505031527 0 287 3.0 7.0 0.00 0.18 0.02 1009.1
20260505030027 0 184 4.0 9.0 0.00 0.18 0.02 1008.9
20260505024524 0 308 3.0 5.0 0.00 0.22 0.02 1008.9
20260505023024 0 308 0.0 4.0 0.00 0.22 0.02 1008.9
20260505021524 0 308 0.0 4.0 0.00 0.22 0.02 1009.0
20260505020021 0 308 1.0 4.0 0.00 0.22 0.02 1009.1
20260505014516 0 308 0.0 4.0 0.00 0.23 0.02 1009.1
20260505013013 0 308 0.0 4.0 0.00 0.23 0.02 1009.2
20260505011509 0 309 0.0 2.0 0.01 0.23 0.02 1009.1
20260505010004 0 309 0.0 0.0 0.01 0.23 0.02 1009.1
20260505004503 0 15 0.0 8.0 0.01 0.23 0.02 1009.1
20260505003059 0 271 4.0 8.0 0.01 0.23 0.02 1009.0
20260505001557 0 165 4.0 14.0 0.00 0.22 0.01 1008.8
20260505000049 0 257 0.0 7.0 0.00 0.22 0.01 1008.7
20260504234543 0 234 3.0 10.0 0.00 0.22 0.01 1008.7
20260504233047 0 202 1.0 7.0 0.00 0.22 0.01 1008.9
20260504231541 0 202 1.0 5.0 0.01 0.22 0.01 1008.7
20260504230030 0 202 0.0 9.0 0.01 0.22 0.01 1008.6
20260504224526 0 202 0.0 5.0 0.02 0.22 0.01 1008.6
20260504223022 0 202 5.0 8.0 0.02 0.22 0.01 1008.4
20260504221517 0 201 1.0 8.0 0.01 0.21 0.00 1008.4
20260504220013 0 205 4.0 9.0 0.01 0.21 0.00 1008.4
20260504214508 0 210 1.0 8.0 0.00 0.20 0.20 1008.6
20260504213005 0 211 2.0 5.0 0.01 0.20 0.20 1008.7
20260504211502 0 211 0.0 0.0 0.02 0.20 0.20 1008.6
20260504210108 0 211 0.0 5.0 0.02 0.20 0.20 1008.4
20260504204602 0 211 3.0 7.0 0.02 0.20 0.20 1008.4
20260504203103 0 290 3.0 5.0 0.02 0.20 0.20 1008.5
20260504201546 0 290 0.0 2.0 0.01 0.19 0.19 1008.4
20260504200041 0 290 0.0 2.0 0.02 0.19 0.19 1008.4
20260504194537 0 290 1.0 8.0 0.02 0.19 0.19 1008.5
20260504193032 0 296 3.0 6.0 0.01 0.18 0.18 1008.4
20260504191528 0 5 2.0 7.0 0.01 0.18 0.18 1008.3
20260504190023 0 280 1.0 4.0 0.00 0.17 0.17 1008.1
20260504184519 0 280 2.0 8.0 0.00 0.17 0.17 1008.1
20260504183015 0 290 1.0 8.0 0.00 0.17 0.17 1008.0
20260504181510 0 325 6.0 10.0 0.00 0.17 0.17 1007.7
20260504180007 0 137 1.0 9.0 0.00 0.17 0.17 1007.4
20260504174501 0 306 9.0 21.0 0.01 0.17 0.17 1007.5
20260504173100 0 5 9.0 15.0 0.01 0.17 0.17 1007.1
20260504171555 0 342 7.0 14.0 0.02 0.17 0.17 1007.0